CDT,Max TemperatureF,Mean TemperatureF,Min TemperatureF,Max Dew PointF,MeanDew PointF,Min DewpointF,Max Humidity, Mean Humidity, Min Humidity, Max Sea Level PressureIn, Mean Sea Level PressureIn, Min Sea Level PressureIn, Max VisibilityMiles, Mean VisibilityMiles, Min VisibilityMiles, Max Wind SpeedMPH, Mean Wind SpeedMPH, Max Gust SpeedMPH,PrecipitationIn, CloudCover, Events, WindDirDegrees
2013-3-1,60,49,37,34,30,27,85,57,29,30.16,30.09,30.02,10,10,9,18,6,26,0.00,3,,325
2013-3-2,47,39,30,27,24,21,78,60,41,30.22,30.17,30.12,10,10,10,23,10,38,0.00,5,,320
2013-3-3,53,40,27,31,22,17,75,50,24,30.25,30.19,30.14,10,10,8,16,6,21,0.00,1,,312
2013-3-4,65,50,34,51,43,31,85,65,44,30.18,30.09,29.98,10,10,10,16,7,23,0.00,4,,159
2013-3-5,74,60,45,59,51,36,78,64,49,30.16,30.03,29.94,10,10,10,25,11,33,0.00,5,,247
2013-3-6,60,49,38,37,27,22,82,54,25,30.28,30.24,30.17,10,10,7,21,10,25,0.00,0,,336
2013-3-7,64,50,35,41,33,28,86,58,30,30.35,30.28,30.23,10,10,7,10,4,16,0.00,2,,357
2013-3-8,74,55,36,42,36,29,92,56,20,30.32,30.25,30.19,10,9,2,10,3,17,0.00,1,,23
2013-3-9,72,59,45,56,48,39,93,63,33,30.21,30.14,30.05,10,9,4,20,10,25,0.00,4,,129
2013-3-10,73,66,58,60,58,55,93,79,64,30.06,30.00,29.92,10,10,9,36,18,44,0.00,6,,134
2013-3-11,68,55,42,63,52,39,96,81,66,30.00,29.91,29.86,10,8,1,20,9,25,0.27,7,Rain,303
2013-3-12,65,52,38,39,34,31,85,58,30,30.20,30.10,30.00,10,10,10,20,8,25,0.00,2,,344
2013-3-13,66,52,38,38,28,17,79,47,15,30.37,30.29,30.21,10,10,10,18,8,25,0.00,0,,329
2013-3-14,66,52,38,37,25,16,71,44,16,30.45,30.36,30.30,10,10,9,15,7,21,0.00,1,,350
2013-3-15,73,56,39,45,39,33,93,60,27,30.31,30.24,30.16,10,10,8,17,7,23,0.00,1,,214
2013-3-16,76,61,46,54,50,46,93,66,38,30.14,30.07,30.00,10,10,8,22,8,29,0.00,1,,203
2013-3-17,75,65,54,60,56,52,100,79,57,30.02,29.97,29.91,10,7,0,20,7,24,0.00,2,Fog,152
2013-3-18,81,71,60,66,63,58,93,76,58,29.93,29.88,29.80,10,8,5,24,10,37,T,6,,162
2013-3-19,78,67,55,56,48,40,86,58,29,30.05,29.99,29.89,10,9,7,17,8,23,0.00,4,Rain,29
2013-3-20,67,54,41,38,32,25,58,40,22,30.12,30.05,29.99,10,10,7,14,9,20,T,4,Rain,6
2013-3-21,67,53,39,40,28,20,70,44,18,30.09,30.00,29.91,10,10,7,14,5,17,0.00,5,,41
2013-3-22,68,58,48,56,48,39,78,65,52,29.93,29.89,29.86,10,9,5,25,12,31,0.02,8,Rain,108
2013-3-23,76,69,61,68,61,48,97,79,60,29.89,29.75,29.59,10,6,2,20,8,26,0.24,8,Rain-Thunderstorm,110
2013-3-24,80,63,45,68,53,28,97,65,33,29.96,29.69,29.58,10,9,5,22,10,31,T,3,Rain,287
2013-3-25,59,48,36,30,23,13,70,44,17,30.23,30.09,29.97,10,10,10,23,12,35,0.00,0,,320
2013-3-26,56,44,32,26,23,20,72,49,26,30.38,30.31,30.25,10,10,10,20,9,25,0.00,1,,328
2013-3-27,62,45,28,35,27,22,85,54,22,30.45,30.37,30.29,10,10,7,12,3,18,0.00,1,,325
2013-3-28,71,52,33,40,33,23,92,55,17,30.37,30.32,30.25,10,10,8,16,4,20,0.00,0,,267
2013-3-29,72,56,39,52,42,32,92,60,28,30.34,30.28,30.22,10,10,7,17,6,22,0.00,1,,187
2013-3-30,76,63,50,57,52,45,96,65,33,30.21,30.14,30.06,10,10,6,21,8,25,0.00,2,Fog,192
2013-3-31,80,69,58,63,59,55,100,74,48,30.06,29.99,29.91,10,8,2,20,7,25,0.27,5,Rain-Thunderstorm,217